Total_Precipitation_Accumulation
1.51 1.53 1.44 1.65 1.77 1.84 1.91 1.92 1.84 1.71 1.66 1.48 1.48 1.52 1.56 1.43 1.57 1.76 2.27 2.76 3.40 4.28 4.47 4.09 3.79 3.71 3.46 3.37 3.57 3.55 3.55 3.60 3.60 3.59 3.55 3.90 4.03 3.60 3.51 3.51 3.52 3.95 4.40
1.33 1.54 1.44 1.45 1.59 1.80 1.94 1.92 1.85 1.91 1.87 1.66 1.65 1.69 1.67 1.61 1.64 1.72 1.97 2.07 2.33 3.05 3.82 4.23 4.33 4.16 3.78 3.58 3.57 3.61 3.76 3.72 3.60 3.46 3.40 3.60 3.81 3.51 3.45 3.55 3.55 3.87 4.24
1.26 1.51 1.43 1.34 1.37 1.54 1.72 1.96 2.03 2.05 1.85 1.76 1.78 1.77 1.66 1.65 1.67 1.85 1.93 2.02 1.95 2.15 2.76 3.30 3.85 4.03 4.09 3.95 3.64 3.49 3.71 3.70 3.57 3.42 3.36 3.38 3.62 3.56 3.54 3.61 3.55 3.75 3.92
1.06 1.30 1.39 1.31 1.31 1.51 1.77 2.05 2.25 2.31 2.10 2.06 2.11 2.00 1.77 1.74 1.69 1.81 1.88 2.01 2.14 1.92 1.98 2.19 2.67 3.29 3.82 3.95 3.96 3.81 3.84 3.72 3.46 3.31 3.13 3.06 3.33 3.51 3.62 3.62 3.51 3.62 3.72
0.99 1.23 1.48 1.51 1.49 1.68 1.83 1.83 2.11 2.28 2.37 2.28 2.11 1.98 1.91 1.91 1.89 1.83 1.97 1.98 2.08 2.03 1.86 1.62 1.72 2.23 2.93 3.43 3.73 3.87 4.11 3.96 3.56 3.36 2.99 2.79 2.94 3.23 3.59 3.35 3.26 3.31 3.55
1.21 1.43 1.69 1.71 1.78 1.88 2.00 2.22 2.51 2.52 2.44 2.48 2.18 1.94 1.82 1.86 1.95 2.07 2.05 2.04 2.11 1.94 1.77 1.63 1.59 1.56 2.16 2.79 3.19 3.62 3.98 4.05 3.76 3.63 3.22 2.78 2.76 3.02 3.40 3.20 3.10 3.18 3.43
1.40 1.63 1.83 2.05 2.17 2.08 2.12 2.41 2.72 2.82 2.59 2.43 2.54 2.39 2.19 2.00 2.00 1.99 1.99 2.06 2.11 2.05 1.95 1.90 1.84 1.71 1.83 2.15 2.47 3.02 3.54 3.85 3.90 3.84 3.56 3.13 2.91 2.95 3.09 2.94 2.88 3.13 3.46
1.49 1.52 1.81 1.99 2.07 2.21 2.26 2.36 2.70 3.04 2.77 2.48 2.76 3.22 2.98 2.74 2.20 1.86 2.00 2.05 2.15 2.16 2.10 1.97 1.99 1.91 1.91 2.08 1.86 2.06 2.68 3.33 3.83 3.93 3.71 3.43 3.21 2.96 3.00 2.88 2.76 2.87 3.12
1.84 1.80 1.85 2.00 2.08 2.28 2.45 2.47 2.55 2.92 2.96 2.68 2.65 3.31 3.37 3.22 2.93 2.35 1.98 2.04 2.23 2.32 2.35 2.26 2.11 2.06 1.95 2.07 1.88 1.62 1.94 2.40 3.13 3.65 3.87 3.67 3.45 3.14 3.02 2.95 2.88 2.92 2.96
2.16 2.16 2.18 2.30 2.23 2.23 2.34 2.31 2.30 2.58 2.94 2.97 2.75 2.57 2.56 2.75 3.21 2.95 2.35 2.16 2.20 2.22 2.38 2.24 2.23 2.27 2.18 2.12 1.98 1.64 1.49 1.69 2.42 3.27 3.83 3.76 3.59 3.42 3.20 3.07 2.92 2.85 2.84
2.80 2.76 2.67 2.51 2.30 2.25 2.32 2.37 2.38 2.50 2.63 2.81 2.78 2.58 2.50 2.46 2.44 2.79 2.78 2.51 2.27 2.16 2.25 2.29 2.31 2.33 2.31 2.25 2.15 1.76 1.41 1.30 1.70 2.59 3.31 3.56 3.57 3.50 3.40 3.28 3.05 2.80 2.62
2.82 2.75 2.56 2.27 2.10 2.06 2.15 2.32 2.35 2.43 2.45 2.54 2.51 2.34 2.32 2.35 2.41 2.65 2.66 2.60 2.56 2.23 2.05 2.09 2.15 2.22 2.12 2.12 1.98 2.00 1.60 1.33 1.36 1.84 2.42 2.93 3.28 3.54 3.51 3.57 3.33 3.00 2.72
2.17 2.18 2.16 2.12 2.02 1.92 1.99 2.22 2.33 2.39 2.40 2.38 2.31 2.21 2.22 2.10 2.20 2.54 2.76 2.66 2.51 2.24 2.07 1.92 1.96 2.00 1.84 1.91 1.99 2.15 1.82 1.56 1.43 1.52 1.82 2.18 2.53 2.97 3.39 3.69 3.77 3.61 3.40
1.95 1.97 1.98 2.01 1.97 1.91 1.92 2.04 2.18 2.28 2.29 2.23 2.16 2.29 2.30 2.09 2.17 2.25 2.45 2.73 2.60 2.39 2.26 1.99 1.85 1.73 1.76 1.78 1.98 2.20 1.66 1.60 1.48 1.39 1.42 1.64 1.96 2.24 2.61 3.12 3.55 3.67 3.65
1.57 1.68 1.79 1.87 1.82 1.79 1.80 1.95 2.09 2.10 2.17 2.26 2.29 2.30 2.32 2.24 2.25 2.25 2.44 2.66 2.76 2.60 2.45 2.15 1.92 1.72 1.75 1.80 2.04 1.87 1.60 1.61 1.51 1.42 1.40 1.42 1.56 1.81 2.05 2.23 2.48 2.62 2.75
1.43 1.46 1.44 1.49 1.50 1.53 1.52 1.61 1.78 1.86 1.87 1.97 2.03 2.09 2.11 2.10 2.22 2.21 2.33 2.54 2.61 2.61 2.52 2.23 2.04 1.91 1.91 1.81 1.96 1.75 1.68 1.84 1.66 1.48 1.40 1.41 1.43 1.55 1.64 1.73 1.83 1.88 1.89
1.14 1.16 1.09 1.12 1.24 1.29 1.22 1.29 1.39 1.45 1.55 1.64 1.66 1.72 1.79 1.82 2.01 2.03 2.16 2.33 2.47 2.49 2.32 2.15 2.10 2.03 1.98 1.98 1.95 1.78 1.67 1.67 1.65 1.53 1.39 1.36 1.41 1.46 1.51 1.61 1.67 1.65 1.63
0.89 0.89 0.85 0.85 0.97 1.12 1.17 1.24 1.29 1.27 1.34 1.47 1.56 1.58 1.56 1.60 1.73 1.81 1.92 2.03 2.24 2.37 2.30 2.21 2.18 1.98 1.77 1.81 1.95 1.95 1.87 1.76 1.76 1.81 1.69 1.58 1.58 1.53 1.46 1.55 1.65 1.61 1.55
0.85 0.83 0.77 0.81 0.86 0.95 1.12 1.20 1.21 1.20 1.19 1.20 1.28 1.31 1.34 1.43 1.60 1.65 1.70 1.85 2.05 2.16 2.29 2.25 2.22 2.00 1.78 1.71 1.86 1.82 1.83 2.04 1.93 1.98 2.12 1.99 1.81 1.69 1.58 1.58 1.63 1.58 1.51
0.89 0.87 0.78 0.77 0.87 0.97 1.07 1.19 1.19 1.11 1.10 1.12 1.18 1.16 1.11 1.16 1.31 1.48 1.58 1.78 1.99 2.20 2.32 2.30 2.29 2.12 1.97 1.84 1.87 1.98 2.00 2.07 2.09 1.87 1.94 2.03 2.05 1.94 1.81 1.68 1.67 1.66 1.65
0.90 0.87 0.85 0.87 0.93 0.96 0.97 1.15 1.16 1.08 1.09 1.06 1.07 1.11 1.09 1.11 1.16 1.25 1.26 1.48 1.73 2.03 2.21 2.29 2.29 2.23 2.09 1.98 1.85 2.01 2.07 2.17 2.26 2.22 2.12 2.01 2.04 1.89 1.83 1.83 1.76 1.74 1.78
0.94 0.90 0.89 0.92 0.91 0.84 1.06 1.17 1.16 1.14 1.15 1.18 1.12 1.08 1.05 1.05 1.17 1.21 1.19 1.25 1.44 1.63 1.83 1.93 1.98 1.99 1.99 2.03 2.12 2.13 2.10 2.13 2.19 2.20 2.10 2.19 2.22 2.16 1.93 1.81 1.87 1.85 1.85
0.89 0.88 0.87 0.87 0.83 0.84 0.92 0.91 0.99 1.07 1.20 1.21 1.12 1.17 1.17 1.06 1.13 1.16 1.25 1.23 1.19 1.25 1.45 1.65 1.72 1.71 1.79 1.83 2.08 2.12 2.10 2.11 2.00 2.05 1.98 2.12 2.10 2.10 1.99 1.97 2.08 1.90 1.89
0.79 0.83 0.91 0.92 0.82 0.76 0.83 0.79 0.86 0.94 1.08 1.14 1.09 1.13 1.33 1.32 1.22 1.24 1.31 1.37 1.24 1.08 1.14 1.24 1.43 1.57 1.63 1.81 2.13 2.35 2.29 2.04 1.93 1.93 1.88 2.02 1.99 1.98 1.93 1.87 2.01 1.95 1.85
0.67 0.69 0.74 0.82 0.80 0.78 0.81 0.81 0.84 0.87 0.95 0.96 1.02 1.12 1.22 1.29 1.28 1.32 1.26 1.29 1.32 1.18 1.16 1.25 1.29 1.41 1.60 1.76 2.03 2.32 2.38 2.25 2.05 1.91 1.78 1.81 1.90 1.98 2.05 1.92 1.88 1.98 1.94
0.65 0.68 0.69 0.67 0.67 0.70 0.79 0.80 0.88 0.86 0.89 0.82 0.87 1.07 1.29 1.23 1.23 1.30 1.27 1.33 1.41 1.24 1.16 1.27 1.27 1.32 1.39 1.64 2.02 2.21 2.35 2.33 2.18 2.09 1.88 1.85 1.92 2.04 2.35 2.24 1.97 1.88 1.90